Location: Cisewo
(53.3833°N, 14.9000°E)
Time: 12:03:03
(UTC+00:00)

Sich 1 - Pass Details

Date: 18 April 2021
Orbit: 593 x 625 km, 82.5° (Epoch: 16 May)

Event Time Altitude Azimuth Distance (km) Brightness Sun altitude
Rises 22:14:47 0° 346° (NNW) 2,851 7.9 -24.8°
Reaches altitude 10° 22:17:01 10° 344° (NNW) 1,942 6.7 -24.8°
Enters shadow 22:20:56 61° 290° (WNW) 678 3.3 -24.9°
